Des Moines International Airport
Wednesday 11:54 PM
Temperature63° (80°/57°)
Dew Point59°
Relative Humidity87
%
Visibility10
mi
Pressure1013.5
mb
Wind DirectionS
170°
Wind Speed6
mph
Precipitation Today0.00"

Terminal Aerodrome Forecast

487 
FTUS43 KDMX 240520
TAFDSM
TAF
KDSM 240520Z 2406/2506 18005KT P6SM FEW250
     FM241600 20011KT P6SM FEW100 SCT200
     FM242200 19006KT P6SM SCT200=

Last 30 Observations

Time PresWx Temp DP Feels RH% Vsby Pressure Ceiling Direction Speed 1h Precip
11:54 PM 63° 59° 87
%
10
mi
1013.6
mb
S
170°
6
mph
0.00"
10:54 PM 65° 60° 84
%
10
mi
1014.2
mb
SSE
160°
7
mph
0.00"
9:54 PM 68° 60° 76
%
10
mi
1014.2
mb
SW
220°
5
mph
0.00"
8:54 PM 70° 60° 71
%
10
mi
1013.9
mb
S
190°
7
mph
0.00"
7:54 PM 72° 60° 72°66
%
10
mi
1013.6
mb
S
180°
5
mph
0.00"
6:54 PM 73° 60° 73°64
%
10
mi
1013.6
mb
S
190°
5
mph
0.00"
5:54 PM 77° 59° 77°54
%
10
mi
1013.2
mb
25,000
ft
SSW
210°
10
mph
0.00"
4:54 PM 78° 58° 78°50
%
10
mi
1013.6
mb
25,000
ft
SW
230°
14
mph
0.00"
3:54 PM 79° 58° 79°49
%
10
mi
1013.9
mb
25,000
ft
SW
230°
11
mph
0.00"
2:54 PM 78° 59° 78°52
%
10
mi
1014.6
mb
25,000
ft
SSW
210°
15
mph
(G21)
0.00"
1:54 PM 78° 60° 78°54
%
10
mi
1015.2
mb
25,000
ft
S
170°
16
mph
0.00"
12:54 PM 76° 61° 76°60
%
10
mi
1016.3
mb
25,000
ft
S
190°
10
mph
0.00"
11:54 AM 73° 62° 73°68
%
10
mi
1016.9
mb
S
190°
6
mph
0.00"
10:54 AM 70° 62° 76
%
10
mi
1017.3
mb
25,000
ft
WSW
240°
3
mph
0.00"
9:54 AM 65° 60° 84
%
10
mi
1017.3
mb
25,000
ft
S
180°
5
mph
0.00"
8:54 AM 60° 58° 93
%
8
mi
1017.3
mb
25,000
ft
S
170°
7
mph
0.00"
7:54 AM BR 58° 57° 97
%
6
mi
1017.3
mb
25,000
ft
SSE
160°
5
mph
0.00"
6:54 AM 57° 55° 93
%
7
mi
1017.3
mb
30,000
ft
SSE
160°
7
mph
0.00"
5:54 AM 57° 55° 93
%
10
mi
1017.3
mb
30,000
ft
S
170°
3
mph
0.00"
4:54 AM 58° 55° 90
%
10
mi
1017.3
mb
S
180°
5
mph
0.00"
3:54 AM 58° 55° 90
%
10
mi
1016.9
mb
S
180°
6
mph
0.00"
2:54 AM 58° 54° 87
%
10
mi
1017.3
mb
S
170°
7
mph
0.00"
1:54 AM 60° 55° 83
%
10
mi
1017.3
mb
SSE
160°
6
mph
0.00"
12:54 AM 60° 55° 83
%
10
mi
1017.6
mb
S
170°
6
mph
0.00"
11:54 PM 62° 55° 78
%
10
mi
1018.0
mb
S
170°
7
mph
0.00"
10:54 PM 62° 55° 78
%
10
mi
1018.0
mb
25,000
ft
S
170°
6
mph
0.00"
9:54 PM 65° 55° 70
%
10
mi
1017.6
mb
25,000
ft
SSE
160°
6
mph
0.00"
8:54 PM 66° 55° 68
%
10
mi
1017.6
mb
25,000
ft
S
170°
6
mph
0.00"
7:54 PM 68° 54° 61
%
10
mi
1017.6
mb
25,000
ft
S
170°
6
mph
0.00"
6:54 PM 73° 55° 73°53
%
10
mi
1017.6
mb
25,000
ft
S
180°
8
mph
0.00"